CW8484 Weather Reports


Display with metric or nautical units.
time (UTC)temp
F
wind
direction
speed
MPH
gust
MPH
rain 1hr
in
rain 24hr
in
rain mn
in
humidity
%
barometer
mb
20260510081403 50 171 1.0 9.0 0.00 0.01 0.01 89 1006.5
20260510080403 50 173 2.0 12.0 0.00 0.01 0.01 89 1006.7
20260510075403 50 162 3.0 12.0 0.01 0.01 0.01 88 1006.7
20260510074403 50 160 4.0 16.0 0.01 0.01 0.01 88 1006.6
20260510073403 51 180 4.0 13.0 0.00 0.00 0.00 87 1006.5
20260510072403 51 168 5.0 18.0 0.00 0.00 0.00 86 1006.6
20260510071403 51 167 3.0 16.0 0.00 0.00 0.00 86 1006.3
20260510070403 51 152 6.0 17.0 0.00 0.00 0.00 85 1006.4
20260510065403 51 177 5.0 15.0 0.00 0.00 0.00 84 1006.6
20260510064403 52 171 5.0 18.0 0.00 0.00 0.00 83 1006.7
20260510063402 52 169 8.0 18.0 0.00 0.00 0.00 83 1006.5
20260510062403 52 183 5.0 17.0 0.00 0.00 0.00 83 1006.5
20260510061402 52 154 5.0 12.0 0.00 0.00 0.00 83 1006.3
20260510060403 52 165 1.0 22.0 0.00 0.00 0.00 82 1006.2
20260510055402 52 171 6.0 17.0 0.00 0.00 0.00 82 1006.5
20260510054424 52 167 7.0 14.0 0.00 0.00 0.00 82 1006.7
20260510053403 51 163 5.0 17.0 0.00 0.00 0.00 82 1006.7
20260510052403 51 184 3.0 14.0 0.00 0.00 0.00 83 1006.7
20260510051403 50 165 5.0 12.0 0.00 0.00 0.00 83 1006.7
20260510050424 50 196 3.0 10.0 0.00 0.00 0.00 84 1006.6
20260510045403 50 179 0.0 6.0 0.00 0.00 0.00 84 1006.5
20260510044403 49 190 2.0 12.0 0.00 0.00 0.00 84 1006.4
20260510043403 49 158 5.0 11.0 0.00 0.00 0.00 84 1006.4
20260510042403 49 188 4.0 10.0 0.00 0.00 0.00 84 1006.5
20260510041423 49 191 2.0 9.0 0.00 0.00 0.00 85 1006.0
20260510040404 48 171 1.0 7.0 0.00 0.00 0.00 85 1005.9
20260510035402 49 162 2.0 6.0 0.00 0.00 0.00 84 1005.9
20260510034403 49 162 0.0 7.0 0.00 0.00 0.00 83 1006.2
20260510033402 50 157 4.0 10.0 0.00 0.00 0.00 83 1006.4
20260510032403 50 159 2.0 7.0 0.00 0.00 0.00 83 1006.5
20260510030403 50 154 3.0 10.0 0.00 0.00 0.00 82 1006.4
20260510024404 50 147 3.0 12.0 0.00 0.00 0.00 83 1006.7
20260510023404 50 159 1.0 10.0 0.00 0.00 0.00 83 1006.7
20260510022404 50 153 3.0 8.0 0.00 0.00 0.00 83 1006.6
20260510021404 50 128 2.0 17.0 0.00 0.00 0.00 82 1006.5
20260510015404 50 122 2.0 6.0 0.00 0.00 0.00 81 1006.9
20260510014404 50 163 3.0 8.0 0.00 0.00 0.00 81 1006.9
20260510013404 50 159 1.0 7.0 0.00 0.00 0.00 81 1007.0
20260510012403 50 144 1.0 7.0 0.00 0.00 0.00 81 1006.9
20260510011404 50 148 3.0 8.0 0.00 0.00 0.00 81 1007.1
20260510010425 50 154 1.0 4.0 0.00 0.00 0.00 81 1007.1
20260510005403 50 147 1.0 6.0 0.00 0.00 0.00 81 1007.3
20260510004404 50 155 2.0 9.0 0.00 0.00 0.00 80 1007.4
20260510003403 50 154 2.0 8.0 0.00 0.00 0.00 80 1007.4
20260510002404 50 167 4.0 9.0 0.00 0.00 0.00 80 1007.3
20260510001404 50 150 1.0 5.0 0.00 0.00 0.00 80 1007.4
20260510000404 50 146 0.0 7.0 0.00 0.00 0.00 79 1007.3
20260509235425 50 174 2.0 10.0 0.00 0.00 0.00 79 1007.3
20260509234403 50 189 0.0 10.0 0.00 0.00 0.00 79 1007.3
20260509233404 50 155 3.0 8.0 0.00 0.00 0.00 79 1007.4
20260509232404 50 174 2.0 9.0 0.00 0.00 0.00 79 1007.2
20260509231403 50 163 1.0 8.0 0.00 0.00 0.00 79 1007.3
20260509230404 51 142 3.0 12.0 0.00 0.00 0.00 78 1007.2
20260509225403 51 152 1.0 10.0 0.00 0.00 0.00 77 1007.2
20260509224425 51 157 2.0 9.0 0.00 0.00 0.00 77 1007.2
20260509223425 51 131 3.0 12.0 0.00 0.00 0.00 77 1007.4
20260509222403 51 181 2.0 11.0 0.00 0.00 0.00 77 1007.5
20260509221404 51 154 5.0 10.0 0.00 0.00 0.00 77 1007.5
20260509220404 51 154 3.0 14.0 0.00 0.00 0.00 77 1007.6
20260509215403 51 161 4.0 10.0 0.00 0.00 0.00 77 1007.6
20260509214404 51 170 5.0 9.0 0.00 0.00 0.00 76 1007.7
20260509213403 51 159 2.0 11.0 0.00 0.00 0.00 75 1007.8
20260509212404 52 166 5.0 14.0 0.00 0.00 0.00 74 1007.8
20260509211403 52 174 4.0 14.0 0.00 0.00 0.00 74 1007.8
20260509210425 52 189 0.0 8.0 0.00 0.00 0.00 73 1007.9
20260509205404 52 160 2.0 16.0 0.00 0.00 0.00 74 1008.0
20260509204403 53 160 2.0 14.0 0.00 0.00 0.00 73 1008.1
20260509203404 53 151 4.0 18.0 0.00 0.00 0.00 70 1008.1
20260509202424 55 153 7.0 15.0 0.00 0.00 0.00 67 1008.1
20260509201403 55 181 4.0 15.0 0.00 0.00 0.00 67 1008.0
20260509200404 56 180 6.0 17.0 0.00 0.00 0.00 66 1008.0
20260509195403 56 147 4.0 15.0 0.00 0.00 0.00 65 1008.1
20260509194404 55 161 4.0 14.0 0.00 0.00 0.00 66 1008.1
20260509193404 54 117 4.0 15.0 0.00 0.00 0.00 66 1008.2
20260509192403 54 171 4.0 12.0 0.00 0.00 0.00 67 1008.1
20260509191404 54 125 2.0 13.0 0.00 0.00 0.00 66 1008.3
20260509190403 54 141 5.0 11.0 0.00 0.00 0.00 64 1008.5
20260509185404 55 135 2.0 17.0 0.00 0.00 0.00 61 1008.6
20260509184403 56 166 5.0 13.0 0.00 0.00 0.00 59 1008.7
20260509183404 57 195 3.0 16.0 0.00 0.00 0.00 59 1008.8
20260509182403 57 167 3.0 14.0 0.00 0.00 0.00 57 1008.8
20260509181403 57 199 3.0 14.0 0.00 0.00 0.00 55 1008.7
20260509180404 58 180 7.0 15.0 0.00 0.00 0.00 51 1008.7
20260509175404 58 178 6.0 16.0 0.00 0.00 0.00 49 1008.8
20260509174425 58 187 10.0 17.0 0.00 0.00 0.00 47 1008.9
20260509173424 59 189 5.0 15.0 0.00 0.00 0.00 46 1008.8
20260509172403 58 165 3.0 12.0 0.00 0.00 0.00 44 1008.9
20260509171425 58 182 5.0 13.0 0.00 0.00 0.00 42 1008.9
20260509170404 58 172 7.0 11.0 0.00 0.00 0.00 42 1009.0
20260509165404 58 174 6.0 11.0 0.00 0.00 0.00 44 1009.1
20260509164404 58 168 5.0 12.0 0.00 0.00 0.00 40 1009.1
20260509163403 58 175 6.0 13.0 0.00 0.00 0.00 39 1009.3
20260509162403 59 172 4.0 10.0 0.00 0.00 0.00 38 1009.4
20260509161403 59 180 4.0 10.0 0.00 0.00 0.00 38 1009.6
20260509160403 59 194 3.0 10.0 0.00 0.00 0.00 38 1009.8
20260509155403 59 174 4.0 9.0 0.00 0.00 0.00 38 1009.9
20260509154403 59 178 3.0 10.0 0.00 0.00 0.00 39 1010.1
20260509153403 58 158 5.0 10.0 0.00 0.00 0.00 39 1010.3
20260509152404 58 124 3.0 12.0 0.00 0.00 0.00 40 1010.5
20260509151403 58 162 3.0 9.0 0.00 0.00 0.00 40 1010.6
20260509150424 57 158 3.0 12.0 0.00 0.00 0.00 40 1010.7
20260509145403 57 148 1.0 16.0 0.00 0.00 0.00 41 1010.6
20260509144403 57 168 5.0 13.0 0.00 0.00 0.00 41 1010.7
20260509143404 57 221 2.0 13.0 0.00 0.00 0.00 41 1010.7
20260509142403 57 170 3.0 13.0 0.00 0.00 0.00 44 1010.9
20260509141403 57 145 4.0 11.0 0.00 0.00 0.00 42 1010.9
20260509140403 56 176 5.0 16.0 0.00 0.00 0.00 45 1010.9
20260509135403 55 149 4.0 15.0 0.00 0.00 0.00 47 1010.9
20260509134402 55 186 5.0 15.0 0.00 0.00 0.00 46 1010.9
20260509133403 55 175 5.0 11.0 0.00 0.00 0.00 46 1010.9
20260509132425 55 144 4.0 13.0 0.00 0.00 0.00 47 1011.0
20260509131403 54 168 1.0 11.0 0.00 0.00 0.00 49 1011.1
20260509130403 53 162 4.0 13.0 0.00 0.00 0.00 48 1011.3
20260509125403 52 154 2.0 11.0 0.00 0.00 0.00 49 1011.3
20260509124403 52 185 5.0 12.0 0.00 0.00 0.00 49 1011.5
20260509123423 51 187 4.0 11.0 0.00 0.00 0.00 51 1011.4
20260509122403 50 162 3.0 10.0 0.00 0.00 0.00 51 1011.4
20260509121403 50 160 3.0 9.0 0.00 0.00 0.00 52 1011.4
20260509120403 48 171 3.0 9.0 0.00 0.00 0.00 54 1011.4
20260509115403 48 167 6.0 11.0 0.00 0.00 0.00 55 1011.4
20260509114403 46 166 2.0 10.0 0.00 0.00 0.00 62 1011.4
20260509113403 44 168 3.0 8.0 0.00 0.00 0.00 64 1011.5
20260509112403 42 170 2.0 6.0 0.00 0.00 0.00 68 1011.4
20260509111403 39 166 2.0 9.0 0.00 0.00 0.00 73 1011.4
20260509110403 37 169 2.0 6.0 0.00 0.00 0.00 74 1011.4
20260509105403 36 172 1.0 6.0 0.00 0.00 0.00 78 1011.4
20260509104424 34 172 0.0 2.0 0.00 0.00 0.00 80 1011.4
20260509103403 34 172 1.0 3.0 0.00 0.00 0.00 80 1011.3
20260509102424 33 172 1.0 6.0 0.00 0.00 0.00 81 1011.1
20260509101403 33 172 1.0 6.0 0.00 0.00 0.00 81 1011.2
20260509100424 33 171 2.0 5.0 0.00 0.00 0.00 81 1011.1
20260509095403 33 171 1.0 7.0 0.00 0.00 0.00 80 1011.0
20260509094445 33 178 0.0 3.0 0.00 0.00 0.00 80 1011.0
20260509093403 33 178 1.0 4.0 0.00 0.00 0.00 80 1010.8
20260509092403 33 178 0.0 2.0 0.00 0.00 0.00 80 1010.7
20260509091403 34 178 0.0 3.0 0.00 0.00 0.00 80 1010.7
20260509090403 34 178 0.0 3.0 0.00 0.00 0.00 79 1010.7
20260509085403 34 178 0.0 5.0 0.00 0.00 0.00 80 1010.7
20260509084402 34 178 0.0 4.0 0.00 0.00 0.00 81 1010.7
20260509083403 34 178 1.0 4.0 0.00 0.00 0.00 80 1010.8
20260509082403 34 177 1.0 5.0 0.00 0.00 0.00 80 1010.7